Miscellaneous Local Product
Issued by NWS Hastings, NE

Home | Current Version | Previous Version | Text Only | Print | Product List | Glossary Off
Versions: 1 2 3 4 5 6 7 8 9 10 11 12 13 14 15 16 17 18 19 20 21 22 23 24 25 26 27 28 29 30 31 32 33 34 35 36 37 38 39 40 41 42 43 44 45 46 47 48 49 50

866
AXUS43 KGID 270602
MISGRI

GID CWA HOURLY WEATHER ROUNDUP
NATIONAL WEATHER SERVICE HASTINGS NE
100 AM CDT MON MAR 27 2017

NOTE: "FAIR" INDICATES FEW OR NO CLOUDS BELOW 12,000 FEET WITH NO
SIGNIFICANT WEATHER AND/OR OBSTRUCTIONS TO VISIBILITY.

...SOUTH CENTRAL NEBRASKA...

CITY           SKY/WX    TMP DP  RH WIND       PRES   REMARKS
GRAND ISLAND   CLOUDY    44  44 100 NE6       29.93F FOG
HASTINGS       CLOUDY    45  44  97 E3        29.93F FOG
KEARNEY        CLOUDY    45  43  93 NW3       29.95R
ORD            CLOUDY    42  39  89 W3        29.95R
YORK           CLOUDY    45  45 100 NE5       29.93F FOG
AURORA         CLOUDY    44  44  98 NE6       29.93S
LEXINGTON      MOCLDY    39  38  94 N5        29.95S FOG
HOLDREGE       CLOUDY    43  41  95 NW5       29.93S
HEBRON         CLOUDY    44  43  95 NE6       29.90F

...NEBRASKA PANHANDLE...

CITY           SKY/WX    TMP DP  RH WIND       PRES   REMARKS
CHADRON        MOCLDY    38  36  92 SW6       29.95S WCI  33
ALLIANCE       PTCLDY    29  29 100 W6        29.94S FOG     WCI  23
SCOTTSBLUFF    CLOUDY    33  28  81 NE5       29.96S WCI  29
SIDNEY         CLEAR     32  30  92 N9        29.96F WCI  24

...WESTERN AND NORTH CENTRAL NEBRASKA...

CITY           SKY/WX    TMP DP  RH WIND       PRES   REMARKS
VALENTINE      CLEAR     35  31  85 CALM      29.95F
AINSWORTH      CLOUDY    39  39 100 CALM      29.96F
ONEILL         CLOUDY    44  41  89 NW3       29.97R
BROKEN BOW     CLEAR     42  40  92 N3        29.94S
IMPERIAL       CLEAR     39  37  92 S3        29.93S
NORTH PLATTE   CLOUDY    45  40  82 E7        29.93F
MCCOOK         MOCLDY    41  40  96 W5        29.94S

...EASTERN NEBRASKA...

CITY           SKY/WX    TMP DP  RH WIND       PRES   REMARKS
NORFOLK        CLOUDY    42  40  92 CALM      29.94S
SO SIOUX CITY  CLOUDY    45  40  82 N3        29.95F
TEKAMAH        CLOUDY    45  41  86 N7        29.94F
COLUMBUS       CLOUDY    43  39  87 NE5       29.95F
ALBION         CLOUDY    45  42  91 CALM      29.94S
OMAHA EPPLEY   CLOUDY    47  42  83 N7        29.93F
OFFUTT AFB     CLOUDY    47  42  82 N5        29.92F
MILLARD        CLOUDY    49  44  84 CALM      29.93F
LINCOLN        CLOUDY    46  43  89 N9        29.94F
NEBRASKA CITY  CLOUDY    45  44  96 N5        29.91F
BEATRICE       CLOUDY    46  44  94 N7        29.90F
FALLS CITY     CLOUDY    46  44  93 SE5       29.92R

...NORTHERN KANSAS...

CITY           SKY/WX    TMP DP  RH WIND       PRES   REMARKS
GOODLAND       FOG       37  37 100 SW10      29.93F VSB 1/4 WCI  30
HILL CITY      CLOUDY    44  44 100 NW7       29.93R
NORTON         PTCLDY    39  36  87 NW7       29.92S WCI  34
PHILLIPSBURG   CLOUDY    46  46 100 NW5       29.94R
HAYS             N/A     44  43  96 NW8       29.91F
RUSSELL        CLOUDY    46  45  96 N5        29.90S
CONCORDIA      CLOUDY    46  45  96 NE7       29.89F
SALINA         CLOUDY    49  46  90 N8        29.89R
TOPEKA         RAIN      47  47 100 NE3       29.91R



USA.gov is the U.S. government's official web portal to all federal, state and local government web resources and services.